Regional Weather Roundup
Issued by NWS Sioux Falls, SD

Home | Current Version | Previous Version | Text Only | Print | Product List | Glossary On
Versions: 1 2 3 4 5 6 7 8 9 10 11 12 13 14 15 16 17 18 19 20 21 22 23 24 25 26 27 28 29 30 31 32 33 34 35 36 37 38 39 40 41 42 43 44 45 46 47 48 49 50
000
ASUS43 KFSD 310310
RWRFSD

WEATHER ROUNDUP FOR SE SOUTH DAKOTA/SW MINNESOTA/NW IOWA
NATIONAL WEATHER SERVICE SIOUX FALLS SD
1000 PM CDT WED JUL 30 2014

NOTE: "FAIR" INDICATES FEW OR NO CLOUDS BELOW 12,000 FEET WITH NO
SIGNIFICANT WEATHER AND OR OBSTRUCTIONS TO VISIBILITY.


SDZ038>040-050-052>070-310400-
SOUTHEAST SOUTH DAKOTA

CITY           SKY/WX    TMP DP  RH WIND       PRES   REMARKS
CHAMBERLAIN    MOCLDY    72  55  55 SE8       30.08R
HURON          CLEAR     69  57  65 E5        30.08R
MADISON        FAIR      61  59  94 CALM      30.11S
MITCHELL       CLEAR     68  57  68 S5        30.09S
SIOUX FALLS    CLEAR     66  55  67 CALM      30.10S
WINNER         FAIR      75  53  46 SE8       30.08R
YANKTON        CLEAR     70  55  60 SW3       30.11R
$$

MNZ071-072-080-081-089-090-097-098-310400-
SOUTHWEST MINNESOTA

CITY           SKY/WX    TMP DP  RH WIND       PRES   REMARKS
FAIRMONT       CLEAR     64  46  52 CALM      30.09R
JACKSON        CLEAR     61  55  82 CALM      30.11R
LUVERNE        CLEAR     63  57  82 CALM      30.11R
MARSHALL       CLEAR     64  55  72 CALM      30.08S
MONTEVIDEO     CLEAR     66  54  63 CALM      30.08S
PIPESTONE      CLEAR     64  59  82 CALM      30.11S
REDWOOD FALLS  CLEAR     70  56  61 W3        30.08R
TRACY          CLEAR     66  57  71 CALM      30.10R
WINDOM         CLEAR     64  61  88 CALM      30.10S
WORTHINGTON    CLEAR     66  55  68 CALM      30.12R
$$

IAZ001>003-012>014-020>022-031-032-NEZ013-014-SDZ071-310400-
NORTHWEST IOWA

CITY           SKY/WX    TMP DP  RH WIND       PRES   REMARKS
CHEROKEE       CLEAR     63  60  89 CALM      30.11S
DENISON        CLEAR     63  61  94 SE5       30.10R
ESTHERVILLE    CLEAR     61  57  87 W3        30.10R
LE MARS        CLEAR     63  59  88 CALM      30.11S
ORANGE CITY    CLEAR     70  55  60 CALM      30.11S
SHELDON        CLEAR     59  57  94 SW3       30.10R
SIOUX CITY     CLEAR     68  56  65 SE5       30.11R
SPENCER        CLEAR     64  59  83 CALM      30.11R
STORM LAKE     CLEAR     64  59  82 W6        30.12R
$$

ABBREVIATIONS USED IN REMARKS
   TC - TEMPERATURE IN CELSIUS
  WCI - WIND CHILL INDEX
   HX - HEAT INDEX
  VSB - VISIBILITY




USA.gov is the U.S. government's official web portal to all federal, state and local government web resources and services.